Regional Weather Roundup
Issued by NWS Midland/Odessa, TX

Skip options and go directly to product.
Home | Oldest Version | Previous Version | Current Version | All | Text Only | Save Text | Print | Product List | Glossary On

Skip product version selection by date and time.   
663
ASUS44 KMAF 252010
RWRMAF
MIDLAND AREA WEATHER ROUNDUP
NATIONAL WEATHER SERVICE MIDLAND TX
300 PM CDT SAT OCT 25 2014

...IN SOUTHWEST TEXAS AND SOUTHEAST NEW MEXICO...

CITY           SKY/WX    TMP DP  RH WIND       PRES   REMARKS
ALPINE         SUNNY     80  47  31 SW6       30.28F
ANDREWS        FAIR      85  50  29 SW6G17    30.14F
ARTESIA        NOT AVBL
BIG SPRING     SUNNY     85  48  27 S7        30.15F
CARLSBAD       SUNNY     80  54  40 VRB5      30.13F
DRYDEN           N/A     84  58  40 S6        30.11F
FORT STOCKTON  SUNNY     86  50  28 SW7       30.13F
GUAD PASS      SUNNY     78  43  28 W22G28    30.28F
HOBBS          SUNNY     82  46  28 S13       30.17F
MARFA          SUNNY     79  50  36 S7        30.27F
MIDLAND AIRPK  SUNNY     87  46  24 W3        30.13F
MIDLAND INTL   SUNNY     87  48  25 VRB5      30.13F
ODESSA         SUNNY     85  48  27 SW8       30.14F
PECOS          SUNNY     86  52  31 NE6       30.11F
PRESIDIO       FAIR      85  51  31 SW6       30.14F
SEMINOLE       SUNNY     84  49  29 S7        30.16F
SNYDER         SUNNY     82  56  40 S10       30.14F
WINK           SUNNY     86  49  27 S7        30.11F
$$
...OTHER STATIONS IN TEXAS...

CITY           SKY/WX    TMP DP  RH WIND       PRES   REMARKS
ABILENE        SUNNY     88  52  29 S14       30.11F
AMARILLO       SUNNY     84  47  27 S17G23    30.12F
AUSTIN         MOSUNNY   86  59  39 S3        30.10F
BROWNSVILLE    MOSUNNY   85  66  53 NE12      30.09F
CORPUS CHRISTI MOSUNNY   84  59  42 SE7       30.11F
DALLAS FTW     SUNNY     86  61  42 SW9       30.08F
DEL RIO        SUNNY     85  60  42 SE13      30.09F
EL PASO        SUNNY     81  45  28 CALM      30.18F
HOUSTON INT    SUNNY     84  58  40 CALM      30.11F
LUBBOCK        SUNNY     84  51  31 S12G20    30.13F
SAN ANGELO     SUNNY     88  50  27 S8        30.11F
SAN ANTONIO    SUNNY     86  56  35 SW5       30.11F
WACO           SUNNY     86  61  42 SE6       30.09F
WICHITA FALLS  NOT AVBL
$$
...OTHER LOCATIONS IN NEW MEXICO...

CITY           SKY/WX    TMP DP  RH WIND       PRES   REMARKS
ALAMAGORDO     NOT AVBL
ALBUQUERQUE    SUNNY     74  37  26 VRB3      30.25F
CANNON AFB     SUNNY     85  41  21 SW13G20   30.16F
CLOVIS         SUNNY     84  43  23 SW18      30.17F
HOLLOMAN AFB   MOSUNNY   81  45  28 S7        30.18F
ROSWELL        SUNNY     80  51  36 S9        30.14F
RUIDOSO        SUNNY     73  39  29 N6        30.34F
SANTA FE       SUNNY     74  25  16 SW8       30.28F
TRUTH OR CONSE SUNNY     78  42  27 S9        30.22F
TUCUMCARI      SUNNY     89  37  16 SW18G28   30.10F
$$

USA.gov is the U.S. government's official web portal to all federal, state and local government web resources and services.